Date String (YYYY-MM-DD hh:mm:ss) UTC,Instrument flags,Ambient pressure (hPa),Sample flow (lpm),Bypass flow (lpm),Sample temperature (°C),Ambient temperature (°C),ASC tube jacket temperature (°C),LED temperature (°C),Box temperature (°C),Sample RH (%),Span deviation,Mass concentration (μg/m³),Mass concentration (μg/m³),Mass concentration (μg/m³)
DateTimeUTC,F1_M11,P_M11,Q1_M11,Q2_M11,T1_M11,T2_M11,T3_M11,T4_M11,T5_M11,U1_M11,ZSPAN_M11,X2_M11,X0_M11,X1_M11
2022-09-08 22:00:00,,0821.5,5.00,0.00,29.3,27.4,00.0,38.0,31.1,17.1,0000.0,0009.25,0021.07,0007.83
2022-09-08 22:01:00,,0821.5,5.00,0.00,29.4,27.7,00.0,38.0,31.2,17.0,0000.0,0009.15,0020.60,0007.77
2022-09-08 22:02:00,,0821.5,5.01,0.00,29.4,27.9,00.0,38.0,31.3,17.1,0000.0,0009.09,0020.29,0007.74
2022-09-08 22:03:00,,0821.4,5.01,0.00,29.4,28.2,00.0,38.0,31.4,16.7,0000.4,0009.05,0020.05,0007.71
2022-09-08 22:04:00,,0821.4,4.97,0.00,29.5,27.9,00.0,38.1,31.4,16.4,0002.2,0009.08,0020.26,0007.70
2022-09-08 22:05:00,,0821.4,5.00,0.00,29.4,26.7,00.0,38.0,31.3,16.6,0002.0,0009.08,0020.04,0007.71
2022-09-08 22:06:00,,0821.4,5.00,0.00,29.4,26.4,00.0,38.0,31.2,17.0,0002.1,0009.09,0019.89,0007.70
2022-09-08 22:07:00,,0821.5,5.00,0.00,29.3,26.6,00.0,38.0,31.2,17.3,0001.9,0009.05,0019.42,0007.69
2022-09-08 22:08:00,,0821.5,5.00,0.00,29.3,26.9,00.0,38.0,31.0,17.2,0001.4,0009.03,0018.11,0007.68
2022-09-08 22:09:00,,0821.5,5.00,0.00,29.3,27.2,00.0,38.0,31.1,17.5,0001.5,0008.97,0016.81,0007.67
2022-09-08 22:10:00,,0821.5,4.99,0.00,29.3,27.5,00.0,38.0,31.2,17.9,0001.1,0008.94,0016.84,0007.65
2022-09-08 22:11:00,,0821.5,5.01,0.00,29.3,27.8,00.0,38.0,31.2,17.5,0000.6,0008.94,0016.47,0007.65
2022-09-08 22:12:00,,0821.5,5.01,0.00,29.4,28.0,00.0,38.0,31.3,17.7,0000.7,0008.92,0016.16,0007.66
2022-09-08 22:13:00,,0821.5,4.98,0.00,29.4,28.2,00.0,38.0,31.4,18.1,0000.7,0008.97,0016.34,0007.68
2022-09-08 22:14:00,,0821.4,4.99,0.00,29.4,27.4,00.0,38.0,31.3,18.1,0000.4,0009.07,0016.57,0007.70
2022-09-08 22:15:00,,0821.5,5.01,0.00,29.4,26.4,00.0,38.0,31.2,18.3,0000.0,0009.12,0017.18,0007.71
2022-09-08 22:16:00,,0821.4,5.00,0.00,29.3,26.4,00.0,38.0,31.2,18.4,0000.0,0009.16,0017.86,0007.72
2022-09-08 22:17:00,,0821.4,5.00,0.00,29.3,26.7,00.0,37.9,31.0,18.5,0000.0,0009.16,0018.51,0007.72
2022-09-08 22:18:00,,0821.4,4.99,0.00,29.3,27.0,00.0,37.9,31.0,18.5,0000.0,0009.18,0018.92,0007.73
2022-09-08 22:19:00,,0821.4,5.00,0.00,29.3,27.3,00.0,37.9,31.1,18.2,0000.0,0009.19,0018.97,0007.74
2022-09-08 22:20:00,,0821.4,5.01,0.00,29.3,27.6,00.0,38.0,31.2,18.1,0000.0,0009.15,0019.09,0007.74
2022-09-08 22:21:00,,0821.4,5.01,0.00,29.3,27.9,00.0,38.0,31.3,18.1,0000.0,0009.15,0019.59,0007.75
2022-09-08 22:22:00,,0821.4,5.01,0.00,29.4,28.1,00.0,38.0,31.3,17.2,0000.2,0009.18,0019.98,0007.77
2022-09-08 22:23:00,,0821.4,4.98,0.00,29.4,28.3,00.0,38.0,31.4,16.8,0000.5,0009.23,0020.70,0007.78
2022-09-08 22:24:00,,0821.4,4.99,0.00,29.4,27.6,00.0,38.0,31.4,16.8,0000.1,0009.22,0021.66,0007.77
2022-09-08 22:25:00,,0821.4,5.01,0.00,29.4,26.5,00.0,38.0,31.2,16.9,0001.0,0009.14,0021.38,0007.80
2022-09-08 22:26:00,,0821.4,5.00,0.00,29.4,26.4,00.0,38.0,31.2,16.8,0001.1,0009.13,0020.90,0007.84
2022-09-08 22:27:00,,0821.3,5.00,0.00,29.3,26.7,00.0,38.0,31.1,16.7,0000.3,0009.15,0020.38,0007.85
2022-09-08 22:28:00,,0821.3,5.00,0.00,29.3,27.0,00.0,38.0,31.0,16.8,0001.6,0009.21,0020.30,0007.88
2022-09-08 22:29:00,,0821.4,5.00,0.00,29.3,27.4,00.0,38.0,31.1,16.6,0001.7,0009.25,0021.10,0007.92
2022-09-08 22:30:00,,0821.4,5.00,0.00,29.3,27.7,00.0,38.0,31.2,16.6,0001.7,0009.27,0021.54,0007.95
2022-09-08 22:31:00,,0821.4,5.01,0.00,29.4,27.9,00.0,38.0,31.3,16.1,0001.8,0009.36,0022.05,0007.99
2022-09-08 22:32:00,,0821.4,4.99,0.00,29.4,28.2,00.0,38.0,31.3,15.6,0000.7,0009.36,0021.86,0008.02
2022-09-08 22:33:00,,0821.4,5.00,0.00,29.5,28.2,00.0,38.0,31.4,16.2,0001.9,0009.39,0021.06,0008.06
2022-09-08 22:34:00,,0821.4,5.01,0.00,29.5,27.2,00.0,38.0,31.3,16.5,0002.4,0009.46,0020.26,0008.12
2022-09-08 22:35:00,,0821.4,4.99,0.00,29.4,26.4,00.0,38.0,31.2,16.4,0002.7,0009.49,0018.89,0008.19
2022-09-08 22:36:00,,0821.4,5.00,0.00,29.4,26.6,00.0,38.0,31.2,16.2,0002.4,0009.48,0018.66,0008.21
2022-09-08 22:37:00,,0821.3,5.00,0.00,29.3,26.8,00.0,38.0,31.1,16.2,0003.3,0009.45,0018.44,0008.20
2022-09-08 22:38:00,,0821.3,5.00,0.00,29.3,27.2,00.0,38.0,31.1,16.1,0003.7,0009.41,0018.51,0008.21
2022-09-08 22:39:00,,0821.4,5.00,0.00,29.3,27.5,00.0,38.0,31.2,16.0,0003.5,0009.42,0018.20,0008.23
2022-09-08 22:40:00,,0821.4,5.00,0.00,29.3,27.8,00.0,38.0,31.2,16.3,0001.9,0009.44,0016.71,0008.24
2022-09-08 22:41:00,,0821.4,5.01,0.00,29.4,28.0,00.0,38.0,31.3,16.4,0002.8,0009.45,0016.87,0008.24
2022-09-08 22:42:00,,0821.4,5.01,0.00,29.4,28.2,00.0,38.0,31.4,16.4,0002.4,0009.43,0017.30,0008.24
2022-09-08 22:43:00,,0821.4,4.99,0.00,29.5,28.3,00.0,38.1,31.5,16.6,0002.2,0009.44,0016.82,0008.24
2022-09-08 22:44:00,,0821.4,5.01,0.00,29.5,27.4,00.0,38.1,31.4,16.4,0002.3,0009.47,0016.84,0008.23
2022-09-08 22:45:00,,0821.4,4.99,0.00,29.4,26.5,00.0,38.0,31.3,16.2,0001.8,0009.43,0016.88,0008.22
2022-09-08 22:46:00,,0821.4,5.00,0.00,29.4,26.6,00.0,38.0,31.3,16.3,0001.3,0009.39,0016.86,0008.19
2022-09-08 22:47:00,,0821.4,5.01,0.00,29.4,26.9,00.0,38.0,31.2,16.8,0001.1,0009.40,0017.46,0008.17
2022-09-08 22:48:00,,0821.4,5.00,0.00,29.3,27.2,00.0,38.0,31.1,16.3,0000.0,0009.40,0017.82,0008.16
2022-09-08 22:49:00,,0821.5,5.00,0.00,29.4,27.5,00.0,38.0,31.2,16.6,0000.0,0009.46,0017.99,0008.15
2022-09-08 22:50:00,,0821.4,5.01,0.00,29.4,27.8,00.0,38.0,31.3,17.7,0000.0,0009.46,0017.63,0008.15
2022-09-08 22:51:00,,0821.5,5.00,0.00,29.4,28.0,00.0,38.0,31.3,18.0,0001.1,0009.44,0018.42,0008.12
2022-09-08 22:52:00,,0821.5,4.98,0.00,29.5,28.2,00.0,38.1,31.4,18.3,0002.4,0009.48,0019.70,0008.12
2022-09-08 22:53:00,,0821.5,5.00,0.00,29.5,28.4,00.0,38.1,31.5,18.5,0002.7,0009.52,0019.14,0008.10
2022-09-08 22:54:00,,0821.5,5.01,0.00,29.5,28.2,00.0,38.1,31.5,18.5,0002.7,0009.62,0019.50,0008.08
2022-09-08 22:55:00,,0821.5,4.99,0.00,29.5,27.0,00.0,38.1,31.4,18.5,0002.5,0009.61,0020.14,0008.07
2022-09-08 22:56:00,,0821.5,5.01,0.00,29.5,26.5,00.0,38.1,31.3,18.1,0002.5,0009.55,0021.25,0008.03
2022-09-08 22:57:00,,0821.5,5.00,0.00,29.4,26.7,00.0,38.1,31.3,18.0,0002.7,0009.52,0021.46,0007.99
2022-09-08 22:58:00,,0821.5,5.00,0.00,29.4,27.0,00.0,38.0,31.1,18.1,0002.2,0009.45,0021.07,0007.94
2022-09-08 22:59:00,,0821.5,5.00,0.00,29.4,27.3,00.0,38.0,31.1,18.1,0002.1,0009.39,0020.63,0007.88
